Regional Weather Roundup
Issued by NWS Mt. Holly, NJ

Home | Current Version | Previous Version | Text Only | Print | Product List | Glossary On
Versions: 1 2 3 4 5 6 7 8 9 10 11 12 13 14 15 16 17 18 19 20 21 22 23 24 25 26 27
000
ASUS41 KPHI 222312
RWRPHI

REGIONAL WEATHER ROUNDUP
NATIONAL WEATHER SERVICE MOUNT HOLLY NJ
700 PM EDT MON MAY 22 2017

NOTE:  "FAIR" INDICATES FEW OR NO CLOUDS BELOW 12,000 FEET WITH NO
SIGNIFICANT WEATHER AND/OR OBSTRUCTIONS TO VISIBILITY.

 * = STATION DOES NOT REPORT PRECIPITATION (E.G. RAIN, SNOW, ETC.)
        OR FOG.

NJZ015>026-230000-
SOUTHERN NEW JERSEY

CITY           SKY/WX    TMP DP  RH WIND       PRES   REMARKS
POMONA         FOG       63  61  93 CALM      29.96S VSB 1/4
WILDWOOD*      CLOUDY    65  65 100 E5        29.97R
MILLVILLE      CLOUDY    66  66 100 CALM      29.96R
WRIGHTSTOWN    CLOUDY    64  63  94 SW3       29.95R
MOUNT HOLLY    CLOUDY    65  62  90 CALM      29.96F
TRENTON        CLOUDY    63  61  93 N3        29.96S

$$
NJZ001>014-230000-
NORTHERN NEW JERSEY

CITY           SKY/WX    TMP DP  RH WIND       PRES   REMARKS
SUSSEX         CLOUDY    60  57  89 CALM      29.98S
ANDOVER*         N/A     59  57  93 CALM      29.97F
MORRISTOWN     CLOUDY    61  59  94 CALM      29.97F FOG
NEWARK         CLOUDY    59  59 100 SE3       29.96F FOG
TETERBORO      CLOUDY    61  60  97 SW3       29.96S FOG
CALDWELL       CLOUDY    63  59  87 CALM      29.97S
SOMERVILLE     CLOUDY    61  60  97 CALM      29.96R
ALLAIRE*       CLOUDY    61  60  97 S3        29.97S FOG
TOMS RIVER*    CLOUDY    63  62  97 CALM      29.96F

$$
PAZ043-044-047-054-055-060>062-066>071-230000-
EASTERN PENNSYLVANIA

CITY           SKY/WX    TMP DP  RH WIND       PRES   REMARKS
PHILADELPHIA   CLOUDY    66  62  87 CALM      29.97S
NORTH PHILA    CLOUDY    66  62  87 CALM      29.98S
BLUE BELL*     CLOUDY    61  61 100 CALM      29.98S
DOYLESTOWN     CLOUDY    62  62 100 CALM      29.96F
QUAKERTOWN*    CLOUDY    63  63 100 CALM      29.98S
PERKASIE*      CLOUDY    61  61 100 CALM      29.98S
POTTSTOWN      CLOUDY    62  60  93 CALM      29.98S
LANCASTER      CLOUDY    64  62  93 SE3       29.97S
COATESVILLE    CLOUDY    63  63 100 CALM      29.99R
READING        CLOUDY    63  60  90 CALM      29.96S
ALLENTOWN      CLOUDY    61  56  83 CALM      29.97S
MOUNT POCONO   FOG       54  54 100 E3        29.98R VSB 3/4
HAZLETON       CLOUDY    59  54  82 CALM      30.01R
LEHIGHTON      CLOUDY    59  55  88 CALM      29.98S
WILKES BARRE   CLOUDY    63  56  78 SW6       29.96R

$$
DEZALL-MDZ008-012-015-019-020-230000-
DELAWARE AND EASTERN MARYLAND

CITY           SKY/WX    TMP DP  RH WIND       PRES   REMARKS
WILMINGTON     CLOUDY    65  63  93 CALM      29.97R
DOVER          CLOUDY    64  64 100 CALM      29.95S
GEORGETOWN     CLOUDY    70  67  90 CALM      29.96S
EASTON         CLOUDY    68  66  94 NW3       29.99F
ABERDEEN       PTSUNNY   64  62  94 CALM      29.97S
PATUXENT       CLOUDY    68  67  96 VRB3      29.95S
OCEAN CITY     LGT RAIN  67  66  97 CALM      29.96S FOG
WALLOPS ISLAND CLOUDY    67  67 100 CALM      29.95F
CAMBRIDGE      CLOUDY    70  66  88 CALM      29.95F
SALISBURY      CLOUDY    70  69  97 CALM      29.95F

$$
PAZ001-021-NYZ056-072-MDZ011-DCZ001-230000-
OTHER NEARBY LOCATIONS

CITY           SKY/WX    TMP DP  RH WIND       PRES   REMARKS
HARRISBURG     CLOUDY    64  61  90 CALM      29.96R
STATE COLLEGE  SUNNY     66  50  55 W7        29.98R
WILLIAMSPORT   CLOUDY    65  58  78 SE7       29.93S
BINGHAMTON     CLOUDY    61  56  83 S6        29.93S
NEW YORK CITY  CLOUDY    60  60 100 CALM      29.99S FOG
BALTIMORE      CLOUDY    65  64  97 E6        29.96S
WASHINGTON DC  CLOUDY    71  64  78 S5        29.96S

$$




USA.gov is the U.S. government's official web portal to all federal, state and local government web resources and services.